Weather History for KLBR - September, 2013

Change the Weather History Date:

Wednesday, September 11, 2013

  Actual Average (KPRX) Record (KPRX)
Temperature  
Mean Temperature 84 °F -  
Max Temperature 98 °F 85 °F 96 °F (2000)
Min Temperature 70 °F 64 °F 57 °F (1997)
Cooling Degree Days 19    
Growing Degree Days 34 (Base 50)    
Moisture  
Dew Point 65 °F    
Average Humidity 58    
Maximum Humidity 89    
Minimum Humidity 27    
Precipitation  
Precipitation 0.00 in - - ()
Sea Level Pressure  
Sea Level Pressure 30.08 in    
Wind  
Wind Speed 1 mph (ENE)    
Max Wind Speed 12 mph    
Max Gust Speed 17 mph    
Visibility 6 miles    
Events      
Averages and records for this station are not official NWS values.
T = Trace of Precipitation, MM = Missing Value Source: NWS Daily Summary

Daily Weather History Graph

Daily Weather History Graph

Search for Another Location

Airport or City:

Trip Planner

Search our weather history database for the weather conditions in past years. The results will help you decide how hot, cold, wet, or windy it might be!

Date:

Astronomy

Sep. 11, 2013 Rise Set
Actual Time 7:01 AM CDT 7:31 PM CDT
Civil Twilight 6:36 AM CDT 7:56 PM CDT
Nautical Twilight 6:06 AM CDT 8:26 PM CDT
Astronomical Twilight 5:36 AM CDT 8:56 PM CDT
Moon 1:11 PM CDT (9/11) 11:47 PM CDT (9/11)
Length of Visible Light 13h 20m
Length of Day
12h 30m
Waxing Crescent, 39% of the Moon is Illuminated
Sep 11
Waxing Crescent
Sep 12
First Quarter
Sep 19
Full
Sep 26
Last Quarter
Oct 4
New

Hourly Weather History & Observations

Time (CDT) Temp. Heat Index Dew Point Humidity Pressure Visibility Wind Dir Wind Speed Gust Speed Precip Events Conditions
12:15 AM 75.6 °F - 66.4 °F 73% 30.08 in 7.0 mi Calm Calm - N/A   Clear
12:35 AM 75.6 °F - 66.4 °F 73% 30.08 in 7.0 mi Calm Calm - N/A   Clear
12:55 AM 74.5 °F - 66.2 °F 75% 30.08 in 7.0 mi Calm Calm - N/A   Clear
1:15 AM 75.2 °F - 66.7 °F 75% 30.08 in 10.0 mi Calm Calm - N/A   Clear
1:35 AM 74.8 °F - 66.4 °F 75% 30.08 in 7.0 mi Calm Calm - N/A   Clear
1:55 AM 74.5 °F - 65.7 °F 74% 30.08 in 7.0 mi Calm Calm - N/A   Clear
2:15 AM 73.4 °F - 65.7 °F 77% 30.09 in 7.0 mi Calm Calm - N/A   Clear
2:35 AM 73.9 °F - 65.5 °F 75% 30.08 in 7.0 mi Calm Calm - N/A   Clear
2:55 AM 72.9 °F - 65.5 °F 78% 30.08 in 10.0 mi Calm Calm - N/A   Clear
3:15 AM 72.5 °F - 66.0 °F 80% 30.08 in 7.0 mi Calm Calm - N/A   Clear
3:35 AM 73.4 °F - 66.2 °F 78% 30.08 in 7.0 mi Calm Calm - N/A   Clear
3:55 AM 74.3 °F - 66.2 °F 76% 30.09 in 7.0 mi Calm Calm - N/A   Clear
4:15 AM 74.1 °F - 65.7 °F 75% 30.10 in 10.0 mi Calm Calm - N/A   Scattered Clouds
4:35 AM 73.9 °F - 66.2 °F 77% 30.10 in 7.0 mi SW 6.9 mph - N/A   Clear
4:55 AM 73.2 °F - 65.8 °F 78% 30.10 in 5.0 mi Calm Calm - N/A   Clear
5:15 AM 72.3 °F - 65.8 °F 80% 30.10 in 10.0 mi Calm Calm - N/A   Clear
5:35 AM 72.0 °F - 65.8 °F 81% 30.11 in 7.0 mi Calm Calm - N/A   Clear
5:55 AM 71.8 °F - 66.0 °F 82% 30.11 in 7.0 mi Calm Calm - N/A   Clear
6:15 AM 71.6 °F - 65.8 °F 82% 30.11 in 7.0 mi Calm Calm - N/A   Clear
6:35 AM 70.3 °F - 64.9 °F 83% 30.11 in 7.0 mi Calm Calm - N/A   Clear
6:55 AM 70.5 °F - 67.1 °F 89% 30.12 in 7.0 mi Calm Calm - N/A   Clear
7:15 AM 71.2 °F - 67.1 °F 87% 30.12 in 7.0 mi Calm Calm - N/A   Clear
7:35 AM 71.6 °F - 67.3 °F 86% 30.13 in 5.0 mi Calm Calm - N/A   Clear
7:55 AM 73.2 °F - 66.7 °F 80% 30.13 in 7.0 mi Calm Calm - N/A   Clear
8:15 AM 75.9 °F - 66.9 °F 74% 30.13 in 7.0 mi Calm Calm - N/A   Clear
8:35 AM 78.8 °F - 67.3 °F 68% 30.13 in 4.0 mi Calm Calm - N/A   Clear
8:55 AM 81.3 °F 83.8 °F 67.1 °F 62% 30.13 in 5.0 mi Calm Calm - N/A   Clear
9:15 AM 83.8 °F 86.3 °F 66.4 °F 56% 30.14 in 4.0 mi NNW 4.6 mph - N/A   Clear
9:35 AM 85.8 °F 87.6 °F 65.3 °F 50% 30.14 in 7.0 mi NNW 6.9 mph - N/A   Clear
9:55 AM 87.3 °F 88.9 °F 64.9 °F 47% 30.14 in 7.0 mi WNW 4.6 mph - N/A   Clear
10:15 AM 88.7 °F 90.1 °F 64.4 °F 44% 30.14 in 7.0 mi North 8.1 mph - N/A   Clear
10:35 AM 89.1 °F 90.6 °F 64.2 °F 44% 30.13 in 5.0 mi NW 5.8 mph - N/A   Clear
10:55 AM 90.3 °F 91.5 °F 63.9 °F 41% 30.14 in 4.0 mi Calm Calm - N/A   Clear
11:15 AM 91.8 °F 92.6 °F 63.1 °F 38% 30.13 in 1.8 mi NNW 5.8 mph - N/A   Unknown
11:35 AM 92.5 °F 92.6 °F 61.5 °F 35% 30.13 in 3.0 mi North 5.8 mph - N/A   Clear
11:55 AM 92.8 °F 93.1 °F 61.3 °F 35% 30.12 in 3.0 mi Calm Calm - N/A   Clear
12:15 PM 93.6 °F 93.4 °F 60.8 °F 33% 30.12 in 7.0 mi East 4.6 mph - N/A   Clear
12:35 PM 95.2 °F 95.5 °F 60.6 °F 32% 30.11 in 7.0 mi NE 4.6 mph - N/A   Clear
12:55 PM 95.0 °F 94.8 °F 60.3 °F 31% 30.11 in 5.0 mi NE 3.5 mph - N/A   Clear
1:15 PM 95.4 °F 95.3 °F 59.9 °F 31% 30.10 in 4.0 mi SE 8.1 mph - N/A   Clear
1:35 PM 96.6 °F 96.8 °F 60.1 °F 30% 30.09 in 4.0 mi ENE 5.8 mph - N/A   Clear
1:55 PM 98.2 °F 98.4 °F 60.1 °F 28% 30.08 in 3.0 mi South 3.5 mph - N/A   Clear
2:15 PM 96.1 °F 96.0 °F 59.5 °F 30% 30.07 in 4.0 mi East 4.6 mph - N/A   Clear
2:35 PM 96.8 °F 96.7 °F 59.7 °F 29% 30.06 in 4.0 mi East 4.6 mph - N/A   Clear
2:55 PM 96.8 °F 96.7 °F 59.5 °F 29% 30.05 in 10.0 mi ENE 3.5 mph - N/A   Clear
3:15 PM 98.1 °F 97.7 °F 59.2 °F 27% 30.05 in 4.0 mi ESE 8.1 mph 17.3 mph N/A   Clear
3:35 PM 96.8 °F 96.2 °F 58.5 °F 28% 30.03 in 7.0 mi East 4.6 mph - N/A   Clear
3:55 PM 96.8 °F 96.2 °F 59.0 °F 28% 30.03 in 7.0 mi ESE 3.5 mph - N/A   Clear
4:15 PM 96.8 °F 96.2 °F 59.0 °F 28% 30.02 in 7.0 mi East 5.8 mph - N/A   Clear
4:35 PM 93.7 °F 94.1 °F 61.7 °F 34% 30.03 in 4.0 mi ESE 11.5 mph 16.1 mph N/A   Clear
4:55 PM 89.8 °F 90.7 °F 63.3 °F 41% 30.03 in 1.5 mi SSE 9.2 mph 17.3 mph N/A   Unknown
5:15 PM 85.3 °F 86.6 °F 64.0 °F 49% 30.03 in 5.0 mi Calm Calm - N/A   Clear
5:35 PM 86.0 °F 87.3 °F 64.2 °F 48% 30.03 in 5.0 mi Calm Calm - N/A   Clear
5:55 PM 85.5 °F 86.8 °F 64.2 °F 49% 30.03 in 5.0 mi Calm Calm - N/A   Clear
6:15 PM 85.3 °F 87.1 °F 65.1 °F 51% 30.03 in 5.0 mi Calm Calm - N/A   Clear
6:35 PM 86.2 °F 87.9 °F 64.8 °F 49% 30.03 in 5.0 mi Calm Calm - N/A   Clear
6:55 PM 87.4 °F 89.1 °F 64.8 °F 47% 30.03 in 5.0 mi Calm Calm - N/A   Clear
7:15 PM 87.3 °F 88.9 °F 64.9 °F 47% 30.03 in 4.0 mi Calm Calm - N/A   Clear
7:35 PM 86.9 °F 88.6 °F 65.3 °F 48% 30.04 in 4.0 mi SE 3.5 mph - N/A   Clear
7:55 PM 85.3 °F 87.4 °F 65.7 °F 52% 30.04 in 5.0 mi Calm Calm - N/A   Clear
8:15 PM 84.4 °F 86.6 °F 66.2 °F 54% 30.05 in 7.0 mi Calm Calm - N/A   Clear
8:35 PM 83.3 °F 85.9 °F 66.9 °F 58% 30.05 in 7.0 mi Calm Calm - N/A   Clear
8:55 PM 81.5 °F 83.9 °F 66.7 °F 61% 30.06 in 7.0 mi Calm Calm - N/A   Clear
9:15 PM 79.7 °F - 67.1 °F 65% 30.06 in 7.0 mi North 3.5 mph - N/A   Clear
9:35 PM 79.3 °F - 67.3 °F 66% 30.06 in 10.0 mi Calm Calm - N/A   Clear
9:55 PM 79.2 °F - 67.3 °F 67% 30.07 in 7.0 mi Calm Calm - N/A   Clear
10:15 PM 78.8 °F - 67.3 °F 68% 30.07 in 7.0 mi Calm Calm - N/A   Clear
10:35 PM 78.3 °F - 67.3 °F 69% 30.07 in 7.0 mi Calm Calm - N/A   Clear
10:55 PM 76.5 °F - 66.9 °F 72% 30.07 in 7.0 mi Calm Calm - N/A   Clear
11:15 PM 76.8 °F - 67.1 °F 72% 30.07 in 7.0 mi Calm Calm - N/A   Clear
11:35 PM 76.5 °F - 66.9 °F 72% 30.06 in 7.0 mi Calm Calm - N/A   Clear
11:55 PM 75.7 °F - 66.4 °F 73% 30.06 in 10.0 mi Calm Calm - N/A   Clear